VCV3346 SVMI-MUHA

Flight info

Callsign VCV3346
Flight time 2h 49m
Altitude 38000
Route MARES1 MARES DCT AVELO UA315 PJG UL220 ABA UL332 UCL HERFO1A
Aircraft A346/H-SDE2E3FGHIJ3J4J5M1RWXY/LB1D1

Departure

Time 2026-05-07 03:11
Airport Maiquetía Simón Bolívar International Airport (SVMI)

Arrival

Time 2026-05-07 06:00
Airport José Martí International Airport (MUHA)
Time Latitude Longitude Altitude Speed Heading
2026-05-07 02:42 10.60109 -67.00547 237 ft 0 kts 359°
2026-05-07 03:01 10.60092 -67.00547 237 ft 4 kts 358°
2026-05-07 03:01 10.60066 -67.00547 237 ft 4 kts
2026-05-07 03:02 10.60039 -67.00549 237 ft 4 kts 359°
2026-05-07 03:02 10.60018 -67.00544 237 ft 2 kts 332°
2026-05-07 03:02 10.60001 -67.00532 237 ft 4 kts 305°
2026-05-07 03:02 10.59995 -67.00514 237 ft 4 kts 269°
2026-05-07 03:03 10.59997 -67.00487 236 ft 3 kts 268°
2026-05-07 03:03 10.59997 -67.00483 236 ft 0 kts 270°
2026-05-07 03:05 10.59997 -67.00487 236 ft 2 kts 270°
2026-05-07 03:05 10.59997 -67.00520 237 ft 6 kts 270°
2026-05-07 03:05 10.59997 -67.00571 238 ft 8 kts 270°
2026-05-07 03:05 10.59997 -67.00632 239 ft 9 kts 270°
2026-05-07 03:06 10.59994 -67.00705 240 ft 11 kts 266°
2026-05-07 03:06 10.59989 -67.00787 241 ft 12 kts 266°
2026-05-07 03:06 10.59985 -67.00876 243 ft 13 kts 269°
2026-05-07 03:06 10.59983 -67.00971 245 ft 9 kts 269°
2026-05-07 03:07 10.59982 -67.01038 246 ft 10 kts 269°
2026-05-07 03:07 10.59981 -67.01118 247 ft 12 kts 269°
2026-05-07 03:07 10.59980 -67.01198 249 ft 10 kts 279°
2026-05-07 03:07 10.60031 -67.01232 249 ft 10 kts 336°
2026-05-07 03:08 10.60108 -67.01247 249 ft 13 kts 352°
2026-05-07 03:08 10.60211 -67.01249 246 ft 17 kts
2026-05-07 03:08 10.60334 -67.01249 248 ft 17 kts
2026-05-07 03:08 10.60372 -67.01201 248 ft 5 kts 70°
2026-05-07 03:09 10.60380 -67.01182 248 ft 1 kts 67°
2026-05-07 03:09 10.60384 -67.01169 248 ft 2 kts 83°
2026-05-07 03:09 10.60384 -67.01166 248 ft 0 kts 87°
2026-05-07 03:10 10.60389 -67.01034 245 ft 54 kts 88°
2026-05-07 03:10 10.60411 -67.00396 240 ft 124 kts 88°
2026-05-07 03:10 10.60442 -66.99310 210 ft 182 kts 88°
2026-05-07 03:11 10.60482 -66.97909 583 ft 203 kts 89°
2026-05-07 03:11 10.60591 -66.96464 1282 ft 207 kts 78°
2026-05-07 03:11 10.61227 -66.95165 2181 ft 209 kts 50°
2026-05-07 03:11 10.62448 -66.94300 2667 ft 224 kts 21°
2026-05-07 03:12 10.64019 -66.94123 3180 ft 234 kts 353°
2026-05-07 03:12 10.65572 -66.94682 3514 ft 251 kts 326°
2026-05-07 03:12 10.66839 -66.95994 3792 ft 271 kts 300°
2026-05-07 03:12 10.67500 -66.97841 4156 ft 288 kts 278°
2026-05-07 03:13 10.67647 -66.99881 4738 ft 284 kts 267°
2026-05-07 03:13 10.67606 -67.01894 5318 ft 288 kts 267°
2026-05-07 03:13 10.67717 -67.03955 6068 ft 295 kts 275°
2026-05-07 03:13 10.68054 -67.06027 6846 ft 300 kts 281°
2026-05-07 03:14 10.68620 -67.08086 7651 ft 304 kts 287°
2026-05-07 03:14 10.69534 -67.10032 8523 ft 307 kts 304°
2026-05-07 03:14 10.72389 -67.13268 10263 ft 310 kts 311°
2026-05-07 03:15 10.73826 -67.14973 10759 ft 325 kts 310°
2026-05-07 03:15 10.75306 -67.16798 11155 ft 342 kts 310°
2026-05-07 03:15 10.76841 -67.18722 11515 ft 359 kts 310°
2026-05-07 03:15 10.78451 -67.20747 11862 ft 376 kts 310°
2026-05-07 03:16 10.80137 -67.22873 12186 ft 394 kts 310°
2026-05-07 03:16 10.81889 -67.25088 12540 ft 409 kts 310°
2026-05-07 03:16 10.83688 -67.27366 13149 ft 415 kts 310°
2026-05-07 03:16 10.85499 -67.29663 13870 ft 418 kts 311°
2026-05-07 03:17 10.87340 -67.31995 14499 ft 420 kts 311°
2026-05-07 03:17 10.89154 -67.34289 15156 ft 422 kts 311°
2026-05-07 03:17 10.91003 -67.36628 15840 ft 424 kts 312°
2026-05-07 03:17 10.92860 -67.38977 16523 ft 426 kts 312°
2026-05-07 03:18 10.94726 -67.41337 17234 ft 429 kts 312°
2026-05-07 03:18 10.96599 -67.43708 17925 ft 431 kts 312°
2026-05-07 03:18 10.98484 -67.46093 18573 ft 433 kts 312°
2026-05-07 03:18 11.00381 -67.48488 19162 ft 435 kts 312°
2026-05-07 03:19 11.02289 -67.50899 19752 ft 437 kts 312°
2026-05-07 03:19 11.04204 -67.53322 20319 ft 440 kts 311°
2026-05-07 03:19 11.06125 -67.55755 20878 ft 441 kts 311°
2026-05-07 03:19 11.08053 -67.58200 21434 ft 443 kts 311°
2026-05-07 03:20 11.09990 -67.60658 21981 ft 445 kts 311°
2026-05-07 03:20 11.11935 -67.63119 22504 ft 447 kts 311°
2026-05-07 03:20 11.13888 -67.65595 22959 ft 450 kts 310°
2026-05-07 03:20 11.15852 -67.68092 23431 ft 452 kts 311°
2026-05-07 03:21 11.17823 -67.70596 23866 ft 453 kts 311°
2026-05-07 03:21 11.19797 -67.73105 24303 ft 454 kts 311°
2026-05-07 03:21 11.21781 -67.75617 24694 ft 456 kts 310°
2026-05-07 03:21 11.23776 -67.78153 25066 ft 458 kts 310°
2026-05-07 03:22 11.25772 -67.80687 25522 ft 458 kts 310°
2026-05-07 03:22 11.27772 -67.83222 25933 ft 460 kts 310°
2026-05-07 03:22 11.29783 -67.85773 26328 ft 462 kts 309°
2026-05-07 03:22 11.31803 -67.88337 26633 ft 466 kts 309°
2026-05-07 03:23 11.33837 -67.90930 26974 ft 469 kts 309°
2026-05-07 03:23 11.35875 -67.93521 27432 ft 469 kts 309°
2026-05-07 03:23 11.37930 -67.96132 27749 ft 473 kts 309°
2026-05-07 03:23 11.40000 -67.98766 28016 ft 478 kts 309°
2026-05-07 03:24 11.42076 -68.01409 28438 ft 478 kts 308°
2026-05-07 03:24 11.44137 -68.04041 29148 ft 472 kts 308°
2026-05-07 03:24 11.46173 -68.06648 29879 ft 467 kts 308°
2026-05-07 03:24 11.48192 -68.09236 30317 ft 467 kts 308°
2026-05-07 03:25 11.50216 -68.11827 30681 ft 465 kts 307°
2026-05-07 03:25 11.52210 -68.14382 30954 ft 468 kts 307°
2026-05-07 03:25 11.54243 -68.16991 31236 ft 471 kts 307°
2026-05-07 03:25 11.56287 -68.19615 31484 ft 473 kts 307°
2026-05-07 03:26 11.58327 -68.22236 31780 ft 470 kts 307°
2026-05-07 03:26 11.60357 -68.24837 32092 ft 467 kts 307°
2026-05-07 03:26 11.62380 -68.27433 32396 ft 467 kts 307°
2026-05-07 03:26 11.64398 -68.30022 32727 ft 466 kts 307°
2026-05-07 03:27 11.66413 -68.32606 33054 ft 464 kts 306°
2026-05-07 03:27 11.68384 -68.35212 33374 ft 461 kts 302°
2026-05-07 03:27 11.69996 -68.38032 33698 ft 458 kts 296°
2026-05-07 03:27 11.71483 -68.40905 34038 ft 457 kts 295°
2026-05-07 03:28 11.72949 -68.43778 34336 ft 455 kts 295°
2026-05-07 03:28 11.74414 -68.46644 34636 ft 455 kts 295°
2026-05-07 03:28 11.75886 -68.49508 34923 ft 454 kts 296°
2026-05-07 03:28 11.77356 -68.52358 35229 ft 453 kts 296°
2026-05-07 03:29 11.78828 -68.55207 35545 ft 452 kts 296°
2026-05-07 03:29 11.80297 -68.58043 35851 ft 451 kts 296°
2026-05-07 03:29 11.81767 -68.60878 36155 ft 450 kts 296°
2026-05-07 03:29 11.83234 -68.63706 36472 ft 450 kts 296°
2026-05-07 03:30 11.84680 -68.66491 36786 ft 449 kts 296°
2026-05-07 03:30 11.86143 -68.69311 37114 ft 449 kts 296°
2026-05-07 03:30 11.87614 -68.72147 37268 ft 454 kts 296°
2026-05-07 03:30 11.89099 -68.75013 37390 ft 459 kts 296°
2026-05-07 03:31 11.90602 -68.77912 37518 ft 463 kts 296°
2026-05-07 03:31 11.92121 -68.80844 37736 ft 464 kts 296°
2026-05-07 03:31 11.93630 -68.83755 38008 ft 464 kts 296°
2026-05-07 03:32 11.96647 -68.89579 38024 ft 461 kts 296°
2026-05-07 03:32 11.99650 -68.95378 38026 ft 460 kts 296°
2026-05-07 03:33 12.02136 -69.00183 38025 ft 460 kts 296°
2026-05-07 03:33 12.05130 -69.05973 38025 ft 460 kts 296°
2026-05-07 03:34 12.08609 -69.12707 38023 ft 460 kts 296°
2026-05-07 03:34 12.11115 -69.17560 38018 ft 460 kts 296°
2026-05-07 03:35 12.14124 -69.23393 38005 ft 465 kts 296°
2026-05-07 03:35 12.17150 -69.29257 38025 ft 466 kts 296°
2026-05-07 03:36 12.20155 -69.35086 38009 ft 466 kts 296°
2026-05-07 03:36 12.23178 -69.40954 38003 ft 466 kts 296°
2026-05-07 03:37 12.26199 -69.46823 37997 ft 466 kts 296°
2026-05-07 03:37 12.29216 -69.52686 37996 ft 466 kts 296°
2026-05-07 03:38 12.32233 -69.58555 38009 ft 465 kts 296°
2026-05-07 03:38 12.35245 -69.64418 37995 ft 464 kts 296°
2026-05-07 03:39 12.38246 -69.70259 38001 ft 463 kts 296°
2026-05-07 03:39 12.41246 -69.76101 38007 ft 463 kts 296°
2026-05-07 03:40 12.44242 -69.81939 38011 ft 463 kts 296°
2026-05-07 03:40 12.47235 -69.87780 38020 ft 463 kts 296°
2026-05-07 03:41 12.50471 -69.93489 38025 ft 463 kts 301°
2026-05-07 03:41 12.54227 -69.98862 38021 ft 465 kts 307°
2026-05-07 03:42 12.58297 -70.03956 38027 ft 465 kts 307°
2026-05-07 03:42 12.62415 -70.09068 38018 ft 465 kts 307°
2026-05-07 03:43 12.66532 -70.14179 37991 ft 465 kts 307°
2026-05-07 03:43 12.70650 -70.19294 38008 ft 465 kts 307°
2026-05-07 03:44 12.74763 -70.24417 38002 ft 465 kts 308°
2026-05-07 03:44 12.78880 -70.29531 38002 ft 465 kts 308°
2026-05-07 03:45 12.83004 -70.34656 38017 ft 465 kts 308°
2026-05-07 03:45 12.87119 -70.39777 37997 ft 465 kts 308°
2026-05-07 03:46 12.91230 -70.44897 38011 ft 465 kts 308°
2026-05-07 03:46 12.95325 -70.49999 38007 ft 465 kts 308°
2026-05-07 03:47 12.99433 -70.55124 38020 ft 465 kts 309°
2026-05-07 03:47 13.03534 -70.60254 38007 ft 464 kts 309°
2026-05-07 03:48 13.07637 -70.65389 38023 ft 466 kts 309°
2026-05-07 03:48 13.11746 -70.70536 38015 ft 465 kts 309°
2026-05-07 03:49 13.15861 -70.75687 38032 ft 466 kts 309°
2026-05-07 03:49 13.19964 -70.80821 38012 ft 465 kts 309°
2026-05-07 03:50 13.24076 -70.85970 38013 ft 466 kts 309°
2026-05-07 03:50 13.28192 -70.91136 38008 ft 468 kts 310°
2026-05-07 03:51 13.32335 -70.96334 38028 ft 468 kts 310°
2026-05-07 03:51 13.36460 -71.01511 38022 ft 468 kts 310°
2026-05-07 03:52 13.40533 -71.06640 38023 ft 464 kts 310°
2026-05-07 03:52 13.44648 -71.11846 38021 ft 468 kts 309°
2026-05-07 03:53 13.48749 -71.17038 38009 ft 469 kts 309°
2026-05-07 03:53 13.52867 -71.22253 38005 ft 468 kts 309°
2026-05-07 03:54 13.56937 -71.27409 38007 ft 468 kts 309°
2026-05-07 03:54 13.61035 -71.32604 38002 ft 467 kts 309°
2026-05-07 03:55 13.65120 -71.37785 38009 ft 467 kts 309°
2026-05-07 03:55 13.69214 -71.42981 38014 ft 467 kts 309°
2026-05-07 03:56 13.73326 -71.48201 38014 ft 470 kts 309°
2026-05-07 03:56 13.77424 -71.53409 38007 ft 467 kts 309°
2026-05-07 03:57 13.81518 -71.58619 38003 ft 463 kts 309°
2026-05-07 03:57 13.85555 -71.63753 38004 ft 461 kts 309°
2026-05-07 03:58 13.89600 -71.68901 38003 ft 461 kts 309°
2026-05-07 03:58 13.93645 -71.74050 38004 ft 463 kts 309°
2026-05-07 03:59 13.97671 -71.79183 38005 ft 461 kts 309°
2026-05-07 03:59 14.01714 -71.84339 38023 ft 461 kts 309°
2026-05-07 04:00 14.05729 -71.89462 38002 ft 459 kts 309°
2026-05-07 04:00 14.09762 -71.94615 38013 ft 462 kts 310°
2026-05-07 04:01 14.13816 -71.99790 38016 ft 466 kts 309°
2026-05-07 04:01 14.17876 -72.04983 38018 ft 463 kts 310°
2026-05-07 04:02 14.21925 -72.10161 38017 ft 462 kts 310°
2026-05-07 04:02 14.25959 -72.15327 38016 ft 462 kts 310°
2026-05-07 04:03 14.30022 -72.20526 38020 ft 468 kts 310°
2026-05-07 04:03 14.34122 -72.25787 38007 ft 472 kts 309°
2026-05-07 04:04 14.38191 -72.31094 38015 ft 473 kts 309°
2026-05-07 04:04 14.42262 -72.36408 38017 ft 473 kts 309°
2026-05-07 04:05 14.46319 -72.41709 38014 ft 469 kts 309°
2026-05-07 04:05 14.50380 -72.47000 38015 ft 473 kts 309°
2026-05-07 04:06 14.54451 -72.52318 38020 ft 473 kts 309°
2026-05-07 04:06 14.58561 -72.57629 38019 ft 474 kts 310°
2026-05-07 04:07 14.62681 -72.62917 38015 ft 474 kts 310°
2026-05-07 04:07 14.66809 -72.68222 38018 ft 471 kts 310°
2026-05-07 04:08 14.70929 -72.73504 38020 ft 474 kts 310°
2026-05-07 04:08 14.75059 -72.78815 38019 ft 475 kts 310°
2026-05-07 04:09 14.79211 -72.84158 38020 ft 476 kts 310°
2026-05-07 04:09 14.83345 -72.89487 38020 ft 475 kts 310°
2026-05-07 04:10 14.87468 -72.94807 38024 ft 473 kts 310°
2026-05-07 04:10 14.91588 -73.00117 38018 ft 476 kts 310°
2026-05-07 04:11 14.95733 -73.05466 38022 ft 476 kts 310°
2026-05-07 04:11 14.99864 -73.10804 38031 ft 479 kts 310°
2026-05-07 04:12 15.04020 -73.16184 38023 ft 479 kts 311°
2026-05-07 04:12 15.08190 -73.21571 38028 ft 478 kts 311°
2026-05-07 04:13 15.12346 -73.26957 38024 ft 480 kts 310°
2026-05-07 04:13 15.16510 -73.32363 38025 ft 480 kts 311°
2026-05-07 04:14 15.20686 -73.37786 38029 ft 482 kts 310°
2026-05-07 04:14 15.24853 -73.43205 38029 ft 481 kts 311°
2026-05-07 04:15 15.29010 -73.48618 38028 ft 478 kts 311°
2026-05-07 04:15 15.33167 -73.54019 38034 ft 480 kts 311°
2026-05-07 04:16 15.37329 -73.59436 38033 ft 481 kts 310°
2026-05-07 04:16 15.41496 -73.64870 38034 ft 480 kts 311°
2026-05-07 04:17 15.45664 -73.70291 38038 ft 480 kts 311°
2026-05-07 04:17 15.49820 -73.75712 38038 ft 480 kts 311°
2026-05-07 04:18 15.53947 -73.81099 38035 ft 480 kts 311°
2026-05-07 04:18 15.58100 -73.86526 38035 ft 480 kts 311°
2026-05-07 04:19 15.62251 -73.91957 38041 ft 480 kts 311°
2026-05-07 04:19 15.66401 -73.97388 38038 ft 480 kts 311°
2026-05-07 04:20 15.70642 -74.02738 38035 ft 479 kts 313°
2026-05-07 04:20 15.74977 -74.07998 38039 ft 479 kts 313°
2026-05-07 04:21 15.80733 -74.14985 38042 ft 477 kts 313°
2026-05-07 04:21 15.85046 -74.20224 38039 ft 477 kts 313°
2026-05-07 04:22 15.89366 -74.25475 38043 ft 477 kts 313°
2026-05-07 04:22 15.93680 -74.30726 38043 ft 477 kts 313°
2026-05-07 04:23 15.97995 -74.35982 38034 ft 477 kts 313°
2026-05-07 04:23 16.02278 -74.41203 38040 ft 477 kts 313°
2026-05-07 04:24 16.06589 -74.46461 38043 ft 477 kts 313°
2026-05-07 04:24 16.10897 -74.51721 38046 ft 477 kts 313°
2026-05-07 04:25 16.15201 -74.56982 38048 ft 475 kts 314°
2026-05-07 04:25 16.19486 -74.62220 38048 ft 475 kts 314°
2026-05-07 04:26 16.23768 -74.67457 38047 ft 474 kts 314°
2026-05-07 04:26 16.28043 -74.72691 38047 ft 474 kts 313°
2026-05-07 04:27 16.32320 -74.77930 38047 ft 474 kts 313°
2026-05-07 04:27 16.36600 -74.83179 38049 ft 474 kts 313°
2026-05-07 04:28 16.40847 -74.88390 38049 ft 474 kts 313°
2026-05-07 04:28 16.45122 -74.93640 38051 ft 474 kts 313°
2026-05-07 04:29 16.49394 -74.98890 38049 ft 474 kts 313°
2026-05-07 04:29 16.53648 -75.04125 38055 ft 472 kts 314°
2026-05-07 04:30 16.57898 -75.09354 38055 ft 472 kts 314°
2026-05-07 04:30 16.62140 -75.14578 38053 ft 471 kts 314°
2026-05-07 04:31 16.66380 -75.19803 38053 ft 471 kts 314°
2026-05-07 04:31 16.70616 -75.25028 38052 ft 471 kts 314°
2026-05-07 04:32 16.74852 -75.30258 38051 ft 471 kts 314°
2026-05-07 04:32 16.79057 -75.35452 38049 ft 471 kts 314°
2026-05-07 04:33 16.83317 -75.40719 38049 ft 471 kts 314°
2026-05-07 04:33 16.87524 -75.45922 38050 ft 472 kts 313°
2026-05-07 04:34 16.91750 -75.51158 38052 ft 470 kts 313°
2026-05-07 04:34 16.95965 -75.56380 38055 ft 470 kts 313°
2026-05-07 04:35 17.00175 -75.61601 38054 ft 470 kts 313°
2026-05-07 04:35 17.04390 -75.66832 38052 ft 470 kts 313°
2026-05-07 04:36 17.08603 -75.72064 38055 ft 470 kts 313°
2026-05-07 04:36 17.12818 -75.77303 38057 ft 470 kts 313°
2026-05-07 04:37 17.17033 -75.82542 38051 ft 471 kts 313°
2026-05-07 04:37 17.21251 -75.87794 38054 ft 471 kts 313°
2026-05-07 04:38 17.25441 -75.93015 38061 ft 470 kts 313°
2026-05-07 04:38 17.29646 -75.98261 38055 ft 469 kts 313°
2026-05-07 04:39 17.33839 -76.03492 38057 ft 469 kts 313°
2026-05-07 04:39 17.38037 -76.08733 38049 ft 469 kts 313°
2026-05-07 04:40 17.42232 -76.13975 38053 ft 469 kts 313°
2026-05-07 04:40 17.46432 -76.19226 38051 ft 470 kts 313°
2026-05-07 04:41 17.50634 -76.24491 38043 ft 471 kts 313°
2026-05-07 04:41 17.54838 -76.29761 38049 ft 471 kts 313°
2026-05-07 04:42 17.59012 -76.34994 38049 ft 471 kts 313°
2026-05-07 04:42 17.63213 -76.40266 38043 ft 471 kts 313°
2026-05-07 04:43 17.67413 -76.45540 38043 ft 471 kts 313°
2026-05-07 04:43 17.71610 -76.50814 38037 ft 471 kts 313°
2026-05-07 04:44 17.75821 -76.56105 38044 ft 472 kts 312°
2026-05-07 04:44 17.80030 -76.61406 38050 ft 472 kts 312°
2026-05-07 04:45 17.84242 -76.66712 38052 ft 472 kts 312°
2026-05-07 04:45 17.88449 -76.72017 38055 ft 472 kts 312°
2026-05-07 04:46 17.92422 -76.77540 38054 ft 474 kts 307°
2026-05-07 04:46 17.95868 -76.83481 38055 ft 477 kts 301°
2026-05-07 04:47 17.98986 -76.89653 38042 ft 477 kts 301°
2026-05-07 04:47 18.02052 -76.95782 38045 ft 477 kts 301°
2026-05-07 04:48 18.05142 -77.01959 38050 ft 477 kts 301°
2026-05-07 04:48 18.08234 -77.08141 38047 ft 477 kts 301°
2026-05-07 04:49 18.11326 -77.14327 38053 ft 477 kts 300°
2026-05-07 04:49 18.14416 -77.20513 38069 ft 477 kts 300°
2026-05-07 04:50 18.17504 -77.26698 38072 ft 478 kts 300°
2026-05-07 04:50 18.20593 -77.32900 38072 ft 478 kts 300°
2026-05-07 04:51 18.23681 -77.39105 38079 ft 478 kts 300°
2026-05-07 04:51 18.26769 -77.45315 38079 ft 478 kts 300°
2026-05-07 04:52 18.29832 -77.51482 38075 ft 478 kts 300°
2026-05-07 04:52 18.32915 -77.57695 38076 ft 478 kts 300°
2026-05-07 04:53 18.36000 -77.63911 38076 ft 479 kts 300°
2026-05-07 04:53 18.39079 -77.70130 38075 ft 478 kts 300°
2026-05-07 04:54 18.42152 -77.76343 38072 ft 477 kts 300°
2026-05-07 04:54 18.45222 -77.82554 38055 ft 477 kts 300°
2026-05-07 04:55 18.48458 -77.88654 38055 ft 476 kts 304°
2026-05-07 04:55 18.52230 -77.94390 38055 ft 475 kts 310°
2026-05-07 04:56 18.56507 -77.99679 38052 ft 474 kts 314°
2026-05-07 04:56 18.61001 -78.04767 38053 ft 474 kts 315°
2026-05-07 04:57 18.65505 -78.09850 38053 ft 474 kts 315°
2026-05-07 04:57 18.70026 -78.14960 38053 ft 474 kts 315°
2026-05-07 04:58 18.74522 -78.20048 38062 ft 474 kts 315°
2026-05-07 04:58 18.79012 -78.25134 38058 ft 473 kts 314°
2026-05-07 04:59 18.83472 -78.30192 38056 ft 473 kts 314°
2026-05-07 04:59 18.87982 -78.35310 38056 ft 473 kts 314°
2026-05-07 05:00 18.92433 -78.40365 38057 ft 472 kts 314°
2026-05-07 05:00 18.96911 -78.45456 38058 ft 472 kts 314°
2026-05-07 05:01 19.01385 -78.50546 38054 ft 473 kts 314°
2026-05-07 05:01 19.05864 -78.55646 38059 ft 473 kts 314°
2026-05-07 05:02 19.10343 -78.60752 38058 ft 473 kts 314°
2026-05-07 05:02 19.14814 -78.65851 38062 ft 472 kts 314°
2026-05-07 05:03 19.19280 -78.70949 38060 ft 472 kts 314°
2026-05-07 05:03 19.23754 -78.76061 38063 ft 472 kts 314°
2026-05-07 05:04 19.28223 -78.81172 38063 ft 473 kts 314°
2026-05-07 05:04 19.32692 -78.86287 38067 ft 473 kts 314°
2026-05-07 05:05 19.37128 -78.91369 38061 ft 473 kts 314°
2026-05-07 05:05 19.41593 -78.96488 38061 ft 473 kts 314°
2026-05-07 05:06 19.46068 -79.01624 38063 ft 473 kts 314°
2026-05-07 05:06 19.50528 -79.06747 38064 ft 472 kts 314°
2026-05-07 05:07 19.54979 -79.11862 38064 ft 472 kts 314°
2026-05-07 05:07 19.59428 -79.16980 38065 ft 471 kts 314°
2026-05-07 05:08 19.63876 -79.22101 38064 ft 471 kts 314°
2026-05-07 05:08 19.68293 -79.27192 38061 ft 471 kts 314°
2026-05-07 05:09 19.72017 -79.31486 38061 ft 471 kts 314°
2026-05-07 05:09 19.77182 -79.37448 38072 ft 471 kts 314°
2026-05-07 05:10 19.81622 -79.42578 38075 ft 471 kts 314°
2026-05-07 05:10 19.86056 -79.47704 38073 ft 470 kts 314°
2026-05-07 05:11 19.89731 -79.51957 38070 ft 470 kts 314°
2026-05-07 05:11 19.94150 -79.57077 38067 ft 470 kts 314°
2026-05-07 05:12 19.98573 -79.62206 38071 ft 470 kts 314°
2026-05-07 05:12 20.02995 -79.67330 38069 ft 470 kts 314°
2026-05-07 05:13 20.07420 -79.72454 38069 ft 470 kts 314°
2026-05-07 05:13 20.11838 -79.77577 38069 ft 469 kts 314°
2026-05-07 05:14 20.16262 -79.82706 38064 ft 471 kts 314°
2026-05-07 05:14 20.20689 -79.87848 38072 ft 470 kts 314°
2026-05-07 05:15 20.25109 -79.92988 38071 ft 470 kts 314°
2026-05-07 05:15 20.29527 -79.98130 38071 ft 470 kts 314°
2026-05-07 05:16 20.33941 -80.03271 38069 ft 470 kts 314°
2026-05-07 05:16 20.38356 -80.08417 38069 ft 470 kts 314°
2026-05-07 05:17 20.42770 -80.13567 38069 ft 470 kts 314°
2026-05-07 05:17 20.47157 -80.18688 38063 ft 471 kts 313°
2026-05-07 05:18 20.51578 -80.23857 38070 ft 471 kts 313°
2026-05-07 05:18 20.55981 -80.29047 38068 ft 471 kts 313°
2026-05-07 05:19 20.60365 -80.34235 38070 ft 470 kts 313°
2026-05-07 05:19 20.64753 -80.39430 38068 ft 470 kts 313°
2026-05-07 05:20 20.69136 -80.44609 38064 ft 464 kts 313°
2026-05-07 05:20 20.71275 -80.47131 38060 ft 450 kts 313°
2026-05-07 05:20 20.73373 -80.49603 38065 ft 448 kts 313°
2026-05-07 05:21 20.79623 -80.56971 38070 ft 448 kts 313°
2026-05-07 05:22 20.83805 -80.61911 38065 ft 448 kts 313°
2026-05-07 05:22 20.87992 -80.66860 38068 ft 448 kts 313°
2026-05-07 05:23 20.92175 -80.71810 38074 ft 447 kts 313°
2026-05-07 05:23 20.96347 -80.76751 38072 ft 447 kts 313°
2026-05-07 05:24 21.00514 -80.81691 38068 ft 447 kts 313°
2026-05-07 05:24 21.04685 -80.86640 38069 ft 447 kts 313°
2026-05-07 05:25 21.08823 -80.91553 38062 ft 447 kts 313°
2026-05-07 05:25 21.12995 -80.96509 38067 ft 448 kts 312°
2026-05-07 05:26 21.17164 -81.01470 38069 ft 448 kts 312°
2026-05-07 05:26 21.21332 -81.06434 38064 ft 443 kts 312°
2026-05-07 05:27 21.25418 -81.11304 38067 ft 437 kts 312°
2026-05-07 05:27 21.29483 -81.16153 38066 ft 436 kts 312°
2026-05-07 05:28 21.33541 -81.20998 38068 ft 436 kts 312°
2026-05-07 05:28 21.37605 -81.25854 38069 ft 436 kts 312°
2026-05-07 05:29 21.41665 -81.30707 38066 ft 437 kts 312°
2026-05-07 05:29 21.45725 -81.35568 38067 ft 437 kts 312°
2026-05-07 05:30 21.49784 -81.40433 38066 ft 437 kts 312°
2026-05-07 05:30 21.53815 -81.45268 38064 ft 437 kts 312°
2026-05-07 05:31 21.57817 -81.50194 38072 ft 437 kts 309°
2026-05-07 05:31 21.61388 -81.55475 38067 ft 436 kts 303°
2026-05-07 05:32 21.64459 -81.61113 38068 ft 437 kts 300°
2026-05-07 05:32 21.67367 -81.66846 38050 ft 435 kts 299°
2026-05-07 05:32 21.68804 -81.69687 37769 ft 431 kts 299°
2026-05-07 05:33 21.70240 -81.72531 37065 ft 433 kts 299°
2026-05-07 05:33 21.71687 -81.75398 36284 ft 438 kts 299°
2026-05-07 05:33 21.73148 -81.78291 35578 ft 442 kts 299°
2026-05-07 05:33 21.74621 -81.81209 34906 ft 444 kts 300°
2026-05-07 05:34 21.76101 -81.84143 34245 ft 447 kts 300°
2026-05-07 05:34 21.77589 -81.87093 33524 ft 449 kts 300°
2026-05-07 05:34 21.79086 -81.90058 32797 ft 451 kts 300°
2026-05-07 05:34 21.80590 -81.93040 32092 ft 453 kts 300°
2026-05-07 05:35 21.82094 -81.96025 31374 ft 455 kts 299°
2026-05-07 05:35 21.83607 -81.99029 30674 ft 456 kts 299°
2026-05-07 05:35 21.85122 -82.02039 29949 ft 458 kts 299°
2026-05-07 05:35 21.86643 -82.05066 29103 ft 460 kts 299°
2026-05-07 05:36 21.88154 -82.08073 28187 ft 464 kts 299°
2026-05-07 05:36 21.89700 -82.11152 27237 ft 469 kts 299°
2026-05-07 05:36 21.91262 -82.14265 26370 ft 473 kts 299°
2026-05-07 05:36 21.92823 -82.17380 25772 ft 469 kts 300°
2026-05-07 05:37 21.94376 -82.20480 25028 ft 470 kts 300°
2026-05-07 05:37 21.95936 -82.23593 24157 ft 474 kts 300°
2026-05-07 05:37 21.97508 -82.26727 23362 ft 476 kts 299°
2026-05-07 05:37 21.99064 -82.29844 22825 ft 465 kts 299°
2026-05-07 05:38 22.00568 -82.32865 22451 ft 449 kts 299°
2026-05-07 05:38 22.02019 -82.35779 22151 ft 432 kts 299°
2026-05-07 05:38 22.03419 -82.38586 21857 ft 416 kts 300°
2026-05-07 05:38 22.04766 -82.41284 21570 ft 402 kts 299°
2026-05-07 05:39 22.06080 -82.43916 21072 ft 395 kts 300°
2026-05-07 05:39 22.07376 -82.46518 20455 ft 391 kts 300°
2026-05-07 05:39 22.08662 -82.49099 19865 ft 388 kts 300°
2026-05-07 05:39 22.09916 -82.51618 19305 ft 385 kts 300°
2026-05-07 05:40 22.11178 -82.54153 18743 ft 381 kts 301°
2026-05-07 05:40 22.12429 -82.56667 18151 ft 378 kts 301°
2026-05-07 05:40 22.13671 -82.59160 17505 ft 376 kts 301°
2026-05-07 05:40 22.14907 -82.61639 16876 ft 373 kts 301°
2026-05-07 05:41 22.16132 -82.64101 16250 ft 371 kts 301°
2026-05-07 05:41 22.17351 -82.66552 15656 ft 369 kts 301°
2026-05-07 05:41 22.18564 -82.68995 15065 ft 367 kts 301°
2026-05-07 05:41 22.19770 -82.71422 14486 ft 366 kts 301°
2026-05-07 05:42 22.20970 -82.73841 13901 ft 364 kts 301°
2026-05-07 05:42 22.22166 -82.76249 13268 ft 362 kts 300°
2026-05-07 05:42 22.23351 -82.78636 12689 ft 359 kts 300°
2026-05-07 05:42 22.24522 -82.80999 12122 ft 355 kts 300°
2026-05-07 05:43 22.25685 -82.83342 11566 ft 351 kts 301°
2026-05-07 05:43 22.27091 -82.85465 11034 ft 344 kts 315°
2026-05-07 05:43 22.28875 -82.87090 10778 ft 328 kts 329°
2026-05-07 05:43 22.30831 -82.88179 10521 ft 315 kts 340°
2026-05-07 05:44 22.32887 -82.89026 10097 ft 310 kts 342°
2026-05-07 05:44 22.34885 -82.89803 9804 ft 310 kts 342°
2026-05-07 05:44 22.36942 -82.90607 9524 ft 310 kts 342°
2026-05-07 05:44 22.38939 -82.91398 9248 ft 309 kts 342°
2026-05-07 05:45 22.40954 -82.92204 8983 ft 308 kts 342°
2026-05-07 05:45 22.42958 -82.93011 8740 ft 307 kts 341°
2026-05-07 05:45 22.44956 -82.93818 8467 ft 306 kts 341°
2026-05-07 05:45 22.46945 -82.94623 8199 ft 305 kts 341°
2026-05-07 05:46 22.48932 -82.95427 7880 ft 304 kts 341°
2026-05-07 05:46 22.50905 -82.96226 7570 ft 303 kts 341°
2026-05-07 05:46 22.52874 -82.97023 7250 ft 301 kts 341°
2026-05-07 05:46 22.54834 -82.97817 6955 ft 300 kts 341°
2026-05-07 05:47 22.56785 -82.98608 6658 ft 299 kts 341°
2026-05-07 05:47 22.58729 -82.99394 6348 ft 298 kts 341°
2026-05-07 05:47 22.60674 -83.00183 6023 ft 297 kts 341°
2026-05-07 05:47 22.62606 -83.00968 5710 ft 296 kts 341°
2026-05-07 05:48 22.64543 -83.01751 5394 ft 295 kts 340°
2026-05-07 05:48 22.66436 -83.02523 5081 ft 294 kts 340°
2026-05-07 05:48 22.68345 -83.03304 4759 ft 292 kts 340°
2026-05-07 05:48 22.70240 -83.04075 4447 ft 290 kts 341°
2026-05-07 05:49 22.72201 -83.04401 4102 ft 285 kts
2026-05-07 05:49 22.74027 -83.03646 4084 ft 282 kts 37°
2026-05-07 05:49 22.75320 -83.02080 4077 ft 279 kts 64°
2026-05-07 05:49 22.75963 -83.00106 4103 ft 278 kts 75°
2026-05-07 05:50 22.76500 -82.98088 4079 ft 278 kts 75°
2026-05-07 05:50 22.77040 -82.96076 4067 ft 278 kts 75°
2026-05-07 05:50 22.77587 -82.94067 4057 ft 278 kts 75°
2026-05-07 05:50 22.78141 -82.92057 4062 ft 278 kts 75°
2026-05-07 05:51 22.78700 -82.90046 4064 ft 278 kts 75°
2026-05-07 05:51 22.79262 -82.88034 4063 ft 279 kts 75°
2026-05-07 05:51 22.79823 -82.86022 4067 ft 278 kts 75°
2026-05-07 05:51 22.80376 -82.84046 4054 ft 267 kts 75°
2026-05-07 05:52 22.80900 -82.82174 4028 ft 253 kts 75°
2026-05-07 05:52 22.81402 -82.80375 3840 ft 246 kts 75°
2026-05-07 05:52 22.81894 -82.78612 3572 ft 243 kts 75°
2026-05-07 05:52 22.82375 -82.76878 3388 ft 236 kts 75°
2026-05-07 05:53 22.82843 -82.75199 3230 ft 228 kts 74°
2026-05-07 05:53 22.83296 -82.73576 3074 ft 221 kts 74°
2026-05-07 05:53 22.83737 -82.72002 2899 ft 216 kts 74°
2026-05-07 05:53 22.84163 -82.70475 2679 ft 213 kts 74°
2026-05-07 05:54 22.84585 -82.68961 2548 ft 204 kts 74°
2026-05-07 05:54 22.84989 -82.67508 2308 ft 199 kts 74°
2026-05-07 05:54 22.85384 -82.66081 2060 ft 194 kts 73°
2026-05-07 05:54 22.85774 -82.64673 2002 ft 196 kts 73°
2026-05-07 05:55 22.86163 -82.63270 1972 ft 186 kts 74°
2026-05-07 05:55 22.86522 -82.61984 1948 ft 173 kts 74°
2026-05-07 05:55 22.86869 -82.60739 1968 ft 171 kts 75°
2026-05-07 05:55 22.87204 -82.59505 1982 ft 167 kts 72°
2026-05-07 05:56 22.87634 -82.58354 1983 ft 162 kts 65°
2026-05-07 05:56 22.88181 -82.57288 1978 ft 160 kts 60°
2026-05-07 05:56 22.88794 -82.56280 1983 ft 160 kts 57°
2026-05-07 05:56 22.89431 -82.55291 1992 ft 159 kts 56°
2026-05-07 05:57 22.90077 -82.54308 1991 ft 159 kts 56°
2026-05-07 05:57 22.90713 -82.53344 1981 ft 159 kts 57°
2026-05-07 05:57 22.91359 -82.52364 1976 ft 159 kts 57°
2026-05-07 05:57 22.92007 -82.51378 1981 ft 161 kts 56°
2026-05-07 05:58 22.92645 -82.50412 1920 ft 154 kts 56°
2026-05-07 05:58 22.93263 -82.49479 1750 ft 151 kts 59°
2026-05-07 05:58 22.93866 -82.48555 1545 ft 150 kts 59°
2026-05-07 05:58 22.94469 -82.47626 1352 ft 150 kts 58°
2026-05-07 05:59 22.95074 -82.46700 1137 ft 150 kts 59°
2026-05-07 05:59 22.95686 -82.45767 929 ft 150 kts 57°
2026-05-07 05:59 22.96291 -82.44852 699 ft 148 kts 56°
2026-05-07 05:59 22.96896 -82.43939 588 ft 149 kts 55°
2026-05-07 06:00 22.97507 -82.43026 418 ft 148 kts 55°
2026-05-07 06:00 22.97914 -82.42433 284 ft 148 kts 54°
2026-05-07 06:00 22.98655 -82.41311 213 ft 109 kts 54°
2026-05-07 06:00 22.98969 -82.40829 216 ft 45 kts 54°
2026-05-07 06:01 22.99072 -82.40673 212 ft 16 kts 53°
2026-05-07 06:01 22.99110 -82.40617 213 ft 12 kts 53°
2026-05-07 06:01 22.99143 -82.40567 216 ft 6 kts 53°
2026-05-07 06:01 22.99182 -82.40510 215 ft 18 kts 53°
2026-05-07 06:02 22.99308 -82.40413 211 ft 12 kts
2026-05-07 06:02 22.99368 -82.40405 214 ft 14 kts
2026-05-07 06:02 22.99446 -82.40394 217 ft 11 kts
2026-05-07 06:02 22.99524 -82.40426 216 ft 14 kts 323°
2026-05-07 06:03 22.99552 -82.40450 215 ft 1 kts 320°
2026-05-07 06:03 22.99567 -82.40463 215 ft 5 kts 320°